Time,TemperatureF,DewpointF,PressureIn,WindDirection,WindDirectionDegrees,WindSpeedMPH,WindSpeedGustMPH,Humidity,HourlyPrecipIn,Conditions,Clouds,dailyrainin,SoftwareType,DateUTC
2013-02-18 00:07:00,23.8,14.0,30.19,South,181,0.0,-999.0,65,-99.99,,,0.00,weatherlink.com 1.10,2013-02-18 05:07:00,
2013-02-18 00:23:00,23.3,14.0,30.19,South,181,0.0,-999.0,67,-99.99,,,0.00,weatherlink.com 1.10,2013-02-18 05:23:00,
2013-02-18 00:38:00,23.0,14.0,30.20,South,181,0.0,-999.0,68,-99.99,,,0.00,weatherlink.com 1.10,2013-02-18 05:38:00,
2013-02-18 00:52:00,22.5,14.0,30.21,South,181,0.0,-999.0,70,-99.99,,,0.00,weatherlink.com 1.10,2013-02-18 05:52:00,
2013-02-18 01:07:00,22.4,14.0,30.21,South,181,0.0,-999.0,71,-99.99,,,0.00,weatherlink.com 1.10,2013-02-18 06:07:00,
2013-02-18 01:22:00,21.8,14.0,30.21,South,181,0.0,-999.0,73,-99.99,,,0.00,weatherlink.com 1.10,2013-02-18 06:22:00,
2013-02-18 01:37:00,21.6,15.0,30.21,South,181,0.0,-999.0,74,-99.99,,,0.00,weatherlink.com 1.10,2013-02-18 06:37:00,
2013-02-18 01:53:00,21.0,14.0,30.21,South,181,0.0,-999.0,74,-99.99,,,0.00,weatherlink.com 1.10,2013-02-18 06:53:00,
2013-02-18 02:07:00,20.6,14.0,30.21,South,181,0.0,-999.0,76,-99.99,,,0.00,weatherlink.com 1.10,2013-02-18 07:07:00,
2013-02-18 02:23:00,20.3,14.0,30.21,South,181,0.0,-999.0,77,-99.99,,,0.00,weatherlink.com 1.10,2013-02-18 07:23:00,
2013-02-18 02:37:00,19.9,14.0,30.21,South,181,0.0,-999.0,77,-99.99,,,0.00,weatherlink.com 1.10,2013-02-18 07:37:00,
2013-02-18 02:53:00,19.7,14.0,30.22,South,181,0.0,-999.0,79,-99.99,,,0.00,weatherlink.com 1.10,2013-02-18 07:53:00,
2013-02-18 03:08:00,19.7,15.0,30.22,South,181,0.0,-999.0,80,-99.99,,,0.00,weatherlink.com 1.10,2013-02-18 08:08:00,
2013-02-18 03:23:00,19.5,15.0,30.22,South,181,0.0,-999.0,81,-99.99,,,0.00,weatherlink.com 1.10,2013-02-18 08:23:00,
2013-02-18 03:38:00,19.1,15.0,30.22,South,181,0.0,-999.0,82,-99.99,,,0.00,weatherlink.com 1.10,2013-02-18 08:38:00,
2013-02-18 03:53:00,19.1,15.0,30.22,South,181,0.0,-999.0,82,-99.99,,,0.00,weatherlink.com 1.10,2013-02-18 08:53:00,
2013-02-18 04:08:00,18.8,15.0,30.23,South,181,0.0,-999.0,83,-99.99,,,0.00,weatherlink.com 1.10,2013-02-18 09:08:00,
2013-02-18 04:23:00,18.3,14.0,30.23,South,181,0.0,-999.0,83,-99.99,,,0.00,weatherlink.com 1.10,2013-02-18 09:23:00,
2013-02-18 04:38:00,18.1,14.0,30.24,South,181,0.0,-999.0,83,-99.99,,,0.00,weatherlink.com 1.10,2013-02-18 09:38:00,
2013-02-18 04:53:00,18.3,14.0,30.24,South,181,0.0,-999.0,83,-99.99,,,0.00,weatherlink.com 1.10,2013-02-18 09:53:00,
2013-02-18 05:08:00,18.1,14.0,30.24,South,181,0.0,-999.0,83,-99.99,,,0.00,weatherlink.com 1.10,2013-02-18 10:08:00,
2013-02-18 05:23:00,18.0,14.0,30.26,South,181,0.0,-999.0,84,-99.99,,,0.00,weatherlink.com 1.10,2013-02-18 10:23:00,
2013-02-18 05:53:00,17.8,14.0,30.26,South,181,0.0,-999.0,84,-99.99,,,0.00,weatherlink.com 1.10,2013-02-18 10:53:00,
2013-02-18 06:08:00,17.7,14.0,30.27,South,181,0.0,-999.0,85,-99.99,,,0.00,weatherlink.com 1.10,2013-02-18 11:08:00,
2013-02-18 06:23:00,17.7,14.0,30.27,South,181,0.0,-999.0,86,-99.99,,,0.00,weatherlink.com 1.10,2013-02-18 11:23:00,
2013-02-18 06:38:00,17.5,14.0,30.28,South,181,0.0,-999.0,86,-99.99,,,0.00,weatherlink.com 1.10,2013-02-18 11:38:00,
2013-02-18 06:53:00,17.2,14.0,30.28,South,181,0.0,-999.0,86,-99.99,,,0.00,weatherlink.com 1.10,2013-02-18 11:53:00,
2013-02-18 07:08:00,17.2,14.0,30.28,South,181,0.0,-999.0,87,-99.99,,,0.00,weatherlink.com 1.10,2013-02-18 12:08:00,
2013-02-18 07:23:00,17.2,14.0,30.29,South,181,0.0,-999.0,87,-99.99,,,0.00,weatherlink.com 1.10,2013-02-18 12:23:00,
2013-02-18 07:38:00,18.0,15.0,30.29,South,181,0.0,-999.0,88,-99.99,,,0.00,weatherlink.com 1.10,2013-02-18 12:38:00,
2013-02-18 07:53:00,20.3,17.0,30.29,South,181,0.0,-999.0,87,-99.99,,,0.00,weatherlink.com 1.10,2013-02-18 12:53:00,
2013-02-18 08:08:00,24.1,20.0,30.30,South,181,0.0,-999.0,84,-99.99,,,0.00,weatherlink.com 1.10,2013-02-18 13:08:00,
2013-02-18 08:38:00,30.4,21.0,30.32,South,181,0.0,-999.0,69,-99.99,,,0.00,weatherlink.com 1.10,2013-02-18 13:38:00,
2013-02-18 08:53:00,32.4,20.0,30.32,South,181,0.0,-999.0,61,-99.99,,,0.00,weatherlink.com 1.10,2013-02-18 13:53:00,
2013-02-18 09:09:00,31.0,19.0,30.32,South,176,0.0,-999.0,61,-99.99,,,0.00,weatherlink.com 1.10,2013-02-18 14:09:00,
2013-02-18 09:23:00,32.5,18.0,30.32,South,176,0.0,-999.0,55,-99.99,,,0.00,weatherlink.com 1.10,2013-02-18 14:23:00,
2013-02-18 09:39:00,34.1,18.0,30.32,South,176,0.0,-999.0,52,-99.99,,,0.00,weatherlink.com 1.10,2013-02-18 14:39:00,
2013-02-18 09:54:00,37.8,19.0,30.31,South,176,0.0,-999.0,47,-99.99,,,0.01,weatherlink.com 1.10,2013-02-18 14:54:00,
2013-02-18 10:08:00,37.6,17.0,30.31,South,178,0.0,-999.0,43,-99.99,,,0.01,weatherlink.com 1.10,2013-02-18 15:08:00,
2013-02-18 10:23:00,39.1,17.0,30.31,South,175,0.0,-999.0,40,-99.99,,,0.01,weatherlink.com 1.10,2013-02-18 15:23:00,
2013-02-18 10:39:00,40.6,15.0,30.31,East,93,0.0,-999.0,35,-99.99,,,0.01,weatherlink.com 1.10,2013-02-18 15:39:00,
2013-02-18 10:53:00,42.8,16.0,30.31,East,93,0.0,-999.0,34,-99.99,,,0.01,weatherlink.com 1.10,2013-02-18 15:53:00,
2013-02-18 11:08:00,42.6,13.0,30.30,East,92,0.0,-999.0,30,-99.99,,,0.01,weatherlink.com 1.10,2013-02-18 16:08:00,
2013-02-18 11:24:00,44.2,15.0,30.30,East,90,1.0,-999.0,31,-99.99,,,0.01,weatherlink.com 1.10,2013-02-18 16:24:00,
2013-02-18 11:39:00,43.2,12.0,30.30,SSW,192,0.0,-999.0,28,-99.99,,,0.01,weatherlink.com 1.10,2013-02-18 16:39:00,
2013-02-18 11:54:00,46.0,14.0,30.29,ESE,110,0.0,-999.0,28,-99.99,,,0.01,weatherlink.com 1.10,2013-02-18 16:54:00,
2013-02-18 12:09:00,47.1,14.0,30.29,South,178,4.0,-999.0,26,-99.99,,,0.01,weatherlink.com 1.10,2013-02-18 17:09:00,
2013-02-18 12:24:00,46.7,14.0,30.28,ENE,73,0.0,-999.0,27,-99.99,,,0.01,weatherlink.com 1.10,2013-02-18 17:24:00,
2013-02-18 12:39:00,47.4,13.0,30.27,WSW,243,0.0,-999.0,25,-99.99,,,0.01,weatherlink.com 1.10,2013-02-18 17:39:00,
2013-02-18 12:54:00,47.3,14.0,30.26,ENE,69,0.0,-999.0,26,-99.99,,,0.01,weatherlink.com 1.10,2013-02-18 17:54:00,
2013-02-18 13:09:00,48.8,16.0,30.25,East,93,0.0,-999.0,27,-99.99,,,0.01,weatherlink.com 1.10,2013-02-18 18:09:00,
2013-02-18 13:24:00,50.1,15.0,30.24,SE,133,0.0,-999.0,25,-99.99,,,0.01,weatherlink.com 1.10,2013-02-18 18:24:00,
2013-02-18 13:39:00,50.4,15.0,30.23,NE,38,0.0,-999.0,24,-99.99,,,0.01,weatherlink.com 1.10,2013-02-18 18:39:00,
2013-02-18 13:54:00,51.0,14.0,30.22,ESE,112,0.0,-999.0,23,-99.99,,,0.01,weatherlink.com 1.10,2013-02-18 18:54:00,
2013-02-18 14:09:00,50.8,15.0,30.22,SSE,147,0.0,-999.0,24,-99.99,,,0.01,weatherlink.com 1.10,2013-02-18 19:09:00,
2013-02-18 14:24:00,49.9,15.0,30.21,NE,51,1.0,-999.0,25,-99.99,,,0.01,weatherlink.com 1.10,2013-02-18 19:24:00,
2013-02-18 14:39:00,51.4,16.0,30.20,SSE,162,0.0,-999.0,24,-99.99,,,0.01,weatherlink.com 1.10,2013-02-18 19:39:00,
2013-02-18 14:54:00,51.4,17.0,30.20,South,175,2.0,-999.0,26,-99.99,,,0.01,weatherlink.com 1.10,2013-02-18 19:54:00,
2013-02-18 15:09:00,51.7,16.0,30.20,ESE,120,0.0,-999.0,24,-99.99,,,0.01,weatherlink.com 1.10,2013-02-18 20:09:00,
2013-02-18 15:24:00,51.6,17.0,30.20,SSE,147,0.0,-999.0,25,-99.99,,,0.01,weatherlink.com 1.10,2013-02-18 20:24:00,
2013-02-18 15:39:00,51.6,17.0,30.20,South,181,1.0,-999.0,25,-99.99,,,0.01,weatherlink.com 1.10,2013-02-18 20:39:00,
2013-02-18 15:54:00,51.6,16.0,30.20,ESE,104,4.0,-999.0,24,-99.99,,,0.01,weatherlink.com 1.10,2013-02-18 20:54:00,
2013-02-18 16:09:00,51.6,18.0,30.19,ESE,104,0.0,-999.0,26,-99.99,,,0.01,weatherlink.com 1.10,2013-02-18 21:09:00,
2013-02-18 16:24:00,52.0,18.0,30.19,ENE,68,3.0,-999.0,26,-99.99,,,0.01,weatherlink.com 1.10,2013-02-18 21:24:00,
2013-02-18 16:39:00,51.3,18.0,30.19,SSE,168,0.0,-999.0,27,-99.99,,,0.01,weatherlink.com 1.10,2013-02-18 21:39:00,
2013-02-18 16:54:00,50.1,18.0,30.19,East,97,0.0,-999.0,28,-99.99,,,0.01,weatherlink.com 1.10,2013-02-18 21:54:00,
2013-02-18 17:09:00,48.8,18.0,30.19,ESE,117,0.0,-999.0,29,-99.99,,,0.01,weatherlink.com 1.10,2013-02-18 22:09:00,
2013-02-18 17:24:00,47.7,20.0,30.19,ESE,112,0.0,-999.0,33,-99.99,,,0.01,weatherlink.com 1.10,2013-02-18 22:24:00,
2013-02-18 17:39:00,47.0,18.0,30.19,ENE,76,0.0,-999.0,32,-99.99,,,0.01,weatherlink.com 1.10,2013-02-18 22:39:00,
2013-02-18 17:54:00,46.1,19.0,30.19,ENE,76,0.0,-999.0,34,-99.99,,,0.01,weatherlink.com 1.10,2013-02-18 22:54:00,
2013-02-18 18:09:00,45.2,19.0,30.20,East,92,0.0,-999.0,35,-99.99,,,0.01,weatherlink.com 1.10,2013-02-18 23:09:00,
2013-02-18 18:24:00,44.5,18.0,30.20,East,92,0.0,-999.0,35,-99.99,,,0.01,weatherlink.com 1.10,2013-02-18 23:24:00,
2013-02-18 18:39:00,43.5,18.0,30.20,East,92,0.0,-999.0,36,-99.99,,,0.01,weatherlink.com 1.10,2013-02-18 23:39:00,
2013-02-18 18:54:00,42.6,19.0,30.20,East,92,0.0,-999.0,39,-99.99,,,0.01,weatherlink.com 1.10,2013-02-18 23:54:00,
2013-02-18 19:09:00,41.6,20.0,30.21,East,92,0.0,-999.0,43,-99.99,,,0.01,weatherlink.com 1.10,2013-02-19 00:09:00,
2013-02-18 19:24:00,40.5,21.0,30.20,East,92,0.0,-999.0,45,-99.99,,,0.01,weatherlink.com 1.10,2013-02-19 00:24:00,
2013-02-18 19:39:00,39.6,20.0,30.20,East,92,0.0,-999.0,46,-99.99,,,0.01,weatherlink.com 1.10,2013-02-19 00:39:00,
2013-02-18 19:54:00,39.1,21.0,30.20,East,92,0.0,-999.0,48,-99.99,,,0.01,weatherlink.com 1.10,2013-02-19 00:54:00,
2013-02-18 20:09:00,38.5,21.0,30.20,East,92,0.0,-999.0,50,-99.99,,,0.01,weatherlink.com 1.10,2013-02-19 01:09:00,
2013-02-18 20:24:00,37.9,22.0,30.19,East,92,0.0,-999.0,52,-99.99,,,0.01,weatherlink.com 1.10,2013-02-19 01:24:00,
2013-02-18 20:39:00,37.3,21.0,30.19,East,92,0.0,-999.0,52,-99.99,,,0.01,weatherlink.com 1.10,2013-02-19 01:39:00,
2013-02-18 20:54:00,36.9,21.0,30.19,East,92,0.0,-999.0,53,-99.99,,,0.01,weatherlink.com 1.10,2013-02-19 01:54:00,
2013-02-18 21:09:00,36.8,21.0,30.18,East,92,0.0,-999.0,54,-99.99,,,0.01,weatherlink.com 1.10,2013-02-19 02:09:00,
2013-02-18 21:24:00,37.6,21.0,30.18,East,90,0.0,-999.0,52,-99.99,,,0.01,weatherlink.com 1.10,2013-02-19 02:24:00,
2013-02-18 21:39:00,39.3,22.0,30.18,ESE,110,0.0,-999.0,50,-99.99,,,0.01,weatherlink.com 1.10,2013-02-19 02:39:00,
2013-02-18 21:54:00,40.2,23.0,30.17,East,86,0.0,-999.0,50,-99.99,,,0.01,weatherlink.com 1.10,2013-02-19 02:54:00,
2013-02-18 22:09:00,40.3,23.0,30.17,ENE,65,0.0,-999.0,50,-99.99,,,0.01,weatherlink.com 1.10,2013-02-19 03:09:00,
2013-02-18 22:25:00,40.5,23.0,30.17,East,96,0.0,-999.0,51,-99.99,,,0.01,weatherlink.com 1.10,2013-02-19 03:25:00,
2013-02-18 22:40:00,40.1,24.0,30.17,ENE,75,0.0,-999.0,52,-99.99,,,0.01,weatherlink.com 1.10,2013-02-19 03:40:00,
2013-02-18 22:54:00,40.2,24.0,30.17,SSE,152,0.0,-999.0,53,-99.99,,,0.01,weatherlink.com 1.10,2013-02-19 03:54:00,
2013-02-18 23:09:00,40.1,24.0,30.16,South,186,0.0,-999.0,54,-99.99,,,0.01,weatherlink.com 1.10,2013-02-19 04:09:00,
2013-02-18 23:24:00,40.1,25.0,30.16,ESE,103,0.0,-999.0,55,-99.99,,,0.01,weatherlink.com 1.10,2013-02-19 04:24:00,
2013-02-18 23:40:00,39.9,25.0,30.16,SE,126,0.0,-999.0,56,-99.99,,,0.01,weatherlink.com 1.10,2013-02-19 04:40:00,
2013-02-18 23:54:00,39.8,26.0,30.16,NE,47,0.0,-999.0,57,-99.99,,,0.01,weatherlink.com 1.10,2013-02-19 04:54:00,